THOR ABLESTAR R/B, 1428

Orbit data source: Space-Track

THOR ABLESTAR R/B, 1428 is space debris in LEO originally from a launch on Thu, 24 Jun 1965 UTC launched from the Air Force Western Test Range (AFWTR). Debris objects in space refer to the collection of defunct objects orbiting the Earth. Examples of debris include non-operational satellites, rocket bodies, and fragments generated from explosions, collisions, or faulty payload assembly.

Loading next visibility...
Identifier
1428, 1965-048B
Orbit
LEO
Country
Flag of USUS
Related business
Manufacturer
Aerojet
Mission
Spacecraft
Bus & Motor
ABLESTAR, Unknown motor
Mass
~600 kg wet, 600 kg dry
Launch date (UTC)
1965-06-24 (60 years ago)
Launch vehicle
Unknown
Launch site
Air Force Western Test Range (AFWTR)
Object type
Payload
Rocket body
Debris
Shape & HBR
Unknown
Radar Cross Section
Large (>1 m²)

Expand to show TLE details & history
Last TLE update: 8 hours ago

TLE from 8 hours ago
0 THOR ABLESTAR R/B
1  1428U 65048B   25310.67763948  .00000059  00000-0  72858-4 0  9997
2  1428  89.8750 287.8031 0058874 105.4386  67.7311 13.52669402978560
Epoch: 2025-11-06T16:15Z
TLE epoch observation values (Epoch: 2025-11-06T16:15:48.051Z)
Latitude
6.12569°
Longitude
177.70702°
Altitude
1,048.444 km
Speed
7.336 km/s
True Right ascension
07h 11m 09s
True Declination
6° 05' 27"
Sunlit
Object was in daylight at epoch
Visualization orbit readout
Latitude
Unknown
Longitude
Unknown
Altitude
Unknown
Speed
Unknown
Apparent Right ascension
Unknown
Apparent Declination
Unknown
Sunlit
N/A
Visualization observer readout
Local Sidereal Time
20:21:10
Azimuth
Unknown
Elevation
Unknown
Doppler factor
Unknown
Orbital elements
Apogee altitude
1,103.288 km
Perigee altitude
1,015.711 km
Semi-major axis
7,437.636 km
Eccentricity
0.00589
Inclination
89.875°
RAAN
287.8031°
Arg. of periapsis
105.4386°
True anomaly
68.35716°
Mean anomaly
67.7311°
Eccentric anomaly
68.04396°
Mean motion
3.38369 °/min
Orbital period
106.39 mins
BSTAR
0.000072858
Loading maneuver chart data...
Computing Atmospheric mass density...

Documentation

Showing up to 5 results
|